Погода в Цзуньи

Китай     27°42′00″N   106°55′39″E
темп.,
°C
ветер,
м/с
пор.,
м/с
влажн.,
%
обл.,
%
осадки,
мм/ч
давл.,
гПа
погр.,
м
26 мая, чт
чт2623:00+21св2395100 1.9 1007128
02:00+20св2397100 2.6 1005120
05:00+20св2298100 7.5 100690
08:00+20св1198100 10.3 100681
11:00+20св1198100 3.7 1007156
14:00+19всв2397100 7.8 1006215
17:00+18в2595100 0.8 1005299
20:00+18в2395100 0.8 1006149
27 мая, пт
пт2723:00+17всв1295100 0.1 1007116
02:00+17в1194100 0.1 100657
05:00+16всв1297100 1.1 1005109
08:00+17св1297100 1.6 1006124
11:00+17всв1296100 2.1 1006178
14:00+17св1197100 10.3 1005170
17:00+17св2396100 0.7 1004192
20:00+16всв1298100 3.0 1005136
28 мая, сб
сб2823:00+16всв1298100 1.9 1007143
02:00+16всв1298100 3.3 100584
05:00+16всв1197100 0.2 100433
08:00+16св0197100 0.9 100570
11:00+17вюв1193100 0.6 1006211
14:00+20вюв218176 0.7 1003680
17:00+20вюв228183 0.1 1001577
20:00+18юв119196 0.1 100332
29 мая, вс
вс2923:00+17вюв1193100 0.1 100421
02:00+17св1194100 0.4 100329
05:00+17ссв1195100 0.9 100321
08:00+18ссз0095100 1.4 100448
11:00+19юз1192100 0.3 1004145
14:00+19юз1191100 1.0 1004201
17:00+22зюз138032 0.1 1003518
20:00+20сз11865 0.1 100411
30 мая, пн
пн3023:00+18ссз22906 0.0 100822
02:00+17сз22918 0.0 100823
05:00+16сз229384 0.0 100826
08:00+19ссз128548 0.0 1009241
11:00+24ссв116758 0.0 1009833
14:00+26вюв465868 0.9 10071680
17:00+25вюв466356 0.1 1006755
20:00+21всв22755 0.1 100720